Location: *
(55.6049°S, 142.1985°W)
Time: 00:18:50
(UTC+00:00)

SL-16 R/B - Pass Details

Date: 12 May 2021
Orbit: 985 x 1007 km, 99.5° (Epoch: 18 June)

Event Time Altitude Azimuth Distance (km) Brightness Sun altitude
Rises 13:22:26 0° 164° (SSE) 3,750 5.9 -32.2°
Reaches altitude 10° 13:24:58 10° 168° (SSE) 2,798 5.2 -31.8°
Enters shadow 13:28:54 37° 190° (S) 1,524 3.4 -31.3°
